When you browse on this site, cookies collect data to enhance your experience and personalize the content and advertising you see.
Visit our Privacy Policy to learn more. By continuing to use the site, you agree to this use of cookies and data.
  • En España
  • Lista de países
  • Para 7 días
  • Temperatura del agua
  • Mapa Satelital
  • El tiempo en el mapa
  • Informadores
  • user-avatar
    Iniciar sesión

    Tiempo cada hora Shushkovo

    Hoy, 22 Marzo, Viernes

    Tiempo Temperatura Precipitaciones Viento Presión Humedad
    00:00 -2°C° 0 mm 2 mps 744 mmHg 91%
    01:00 -2°C° 0 mm 2 mps 744 mmHg 91%
    02:00 -2°C° 0 mm 2 mps 743 mmHg 90%
    03:00 -2°C° 0 mm 3 mps 743 mmHg 90%
    04:00 -2°C° 0 mm 3 mps 742 mmHg 91%
    05:00 -2°C° 0 mm 3 mps 741 mmHg 91%
    06:00 -2°C° 0.2 mm 4 mps 740 mmHg 90%
    07:00 -1°C° 0.2 mm 5 mps 739 mmHg 88%
    08:00 -1°C° 0.2 mm 6 mps 738 mmHg 87%
    09:00 -1°C° 1 mm 6 mps 737 mmHg 88%
    10:00 -1°C° 1 mm 7 mps 736 mmHg 90%
    11:00 -1°C° 1 mm 7 mps 735 mmHg 92%
    12:00 -1°C° 0.7 mm 7 mps 735 mmHg 90%
    13:00 -1°C° 0.7 mm 7 mps 735 mmHg 87%
    14:00 -1°C° 0.7 mm 8 mps 735 mmHg 85%
    15:00 -1°C° 0.3 mm 8 mps 735 mmHg 82%
    16:00 -2°C° 0.3 mm 8 mps 736 mmHg 80%
    17:00 -2°C° 0.3 mm 8 mps 736 mmHg 77%
    18:00 -4°C° 0.1 mm 8 mps 736 mmHg 78%
    19:00 -3°C° 0.1 mm 7 mps 737 mmHg 80%
    20:00 -4°C° 0.1 mm 7 mps 737 mmHg 81%
    21:00 -4°C° 0.1 mm 7 mps 737 mmHg 82%
    22:00 -4°C° 0.1 mm 7 mps 737 mmHg 83%
    23:00 -4°C° 0.1 mm 7 mps 737 mmHg 84%

    Mañana, 23 Marzo, Sábado

    Tiempo Temperatura Precipitaciones Viento Presión Humedad
    00:00 -4°C° 0.1 mm 7 mps 737 mmHg 85%
    01:00 -4°C° 0.1 mm 7 mps 737 mmHg 86%
    02:00 -4°C° 0.1 mm 7 mps 737 mmHg 87%
    03:00 -3°C° 0.1 mm 7 mps 738 mmHg 88%
    04:00 -3°C° 0.1 mm 7 mps 738 mmHg 89%
    05:00 -3°C° 0.1 mm 7 mps 739 mmHg 89%
    06:00 -3°C° 0.1 mm 7 mps 740 mmHg 89%
    07:00 -2°C° 0.1 mm 7 mps 741 mmHg 89%
    08:00 -2°C° 0.1 mm 6 mps 742 mmHg 89%
    09:00 -2°C° 0 mm 6 mps 743 mmHg 87%
    10:00 -2°C° 0 mm 6 mps 743 mmHg 86%
    11:00 -2°C° 0 mm 6 mps 744 mmHg 84%
    12:00 -1°C° 0 mm 5 mps 744 mmHg 83%
    13:00 -1°C° 0 mm 5 mps 744 mmHg 82%
    14:00 -1°C° 0 mm 5 mps 744 mmHg 81%
    15:00 -2°C° 0 mm 4 mps 745 mmHg 82%
    16:00 -1°C° 0 mm 3 mps 745 mmHg 83%
    17:00 -1°C° 0 mm 2 mps 745 mmHg 84%
    18:00 -1°C° 0 mm 2 mps 745 mmHg 85%
    19:00 -2°C° 0 mm 2 mps 745 mmHg 86%
    20:00 0°C° 0 mm 1 mps 745 mmHg 88%
    21:00 0°C° 0 mm 1 mps 745 mmHg 87%
    22:00 0°C° 0 mm 1 mps 745 mmHg 87%
    23:00 0°C° 0 mm 1 mps 745 mmHg 86%

    Pasado mañana, 24 Marzo, Domingo

    Tiempo Temperatura Precipitaciones Viento Presión Humedad
    00:00 -1°C° 0 mm 1 mps 744 mmHg 86%
    01:00 -1°C° 0 mm 1 mps 744 mmHg 86%
    02:00 -1°C° 0 mm 1 mps 744 mmHg 87%
    03:00 -3°C° 0 mm 2 mps 743 mmHg 86%
    04:00 -3°C° 0 mm 2 mps 743 mmHg 86%
    05:00 -3°C° 0 mm 2 mps 742 mmHg 86%
    06:00 -4°C° 0 mm 3 mps 742 mmHg 85%
    07:00 -3°C° 0 mm 4 mps 741 mmHg 84%
    08:00 -3°C° 0 mm 4 mps 741 mmHg 83%
    09:00 -2°C° 0.2 mm 4 mps 741 mmHg 84%
    10:00 -2°C° 0.2 mm 5 mps 740 mmHg 86%
    11:00 -1°C° 0.2 mm 5 mps 740 mmHg 87%
    12:00 -1°C° 0.2 mm 5 mps 739 mmHg 88%
    13:00 -1°C° 0.2 mm 5 mps 739 mmHg 89%
    14:00 -1°C° 0.2 mm 5 mps 738 mmHg 90%
    15:00 -1°C° 0 mm 4 mps 738 mmHg 90%
    16:00 0°C° 0 mm 3 mps 738 mmHg 91%
    17:00 0°C° 0 mm 3 mps 737 mmHg 91%
    18:00 0°C° 0.1 mm 3 mps 737 mmHg 90%
    19:00 0°C° 0.1 mm 3 mps 737 mmHg 89%
    20:00 0°C° 0.1 mm 3 mps 738 mmHg 88%
    21:00 -1°C° 0 mm 3 mps 737 mmHg 88%
    22:00 -1°C° 0 mm 3 mps 737 mmHg 87%
    23:00 -2°C° 0 mm 3 mps 737 mmHg 87%

    25 Marzo, Lunes

    Tiempo Temperatura Precipitaciones Viento Presión Humedad
    00:00 -2°C° 0 mm 3 mps 737 mmHg 87%
    01:00 -4°C° 0 mm 3 mps 737 mmHg 87%
    02:00 -4°C° 0 mm 3 mps 737 mmHg 88%
    03:00 -4°C° 0 mm 3 mps 737 mmHg 89%
    04:00 -5°C° 0 mm 3 mps 737 mmHg 89%
    05:00 -5°C° 0 mm 3 mps 738 mmHg 90%
    06:00 -4°C° 0 mm 4 mps 738 mmHg 87%
    07:00 -4°C° 0 mm 4 mps 738 mmHg 83%
    08:00 -4°C° 0 mm 5 mps 738 mmHg 80%
    09:00 -2°C° 0 mm 5 mps 738 mmHg 75%
    10:00 -2°C° 0 mm 5 mps 738 mmHg 70%
    11:00 -1°C° 0 mm 5 mps 739 mmHg 66%
    12:00 -1°C° 0.1 mm 5 mps 738 mmHg 64%
    13:00 0°C° 0.1 mm 5 mps 738 mmHg 62%
    14:00 0°C° 0.1 mm 5 mps 738 mmHg 60%
    15:00 -1°C° 0 mm 4 mps 738 mmHg 62%
    16:00 0°C° 0 mm 3 mps 739 mmHg 65%
    17:00 -1°C° 0 mm 2 mps 739 mmHg 68%
    18:00 -1°C° 0 mm 2 mps 739 mmHg 70%
    19:00 -2°C° 0 mm 2 mps 739 mmHg 72%
    20:00 -2°C° 0 mm 2 mps 739 mmHg 75%
    21:00 -2°C° 0 mm 2 mps 740 mmHg 76%
    22:00 -2°C° 0 mm 2 mps 740 mmHg 77%
    23:00 -2°C° 0 mm 2 mps 740 mmHg 79%

    26 Marzo, Martes

    Tiempo Temperatura Precipitaciones Viento Presión Humedad
    00:00 -2°C° 0 mm 3 mps 740 mmHg 79%
    01:00 -2°C° 0 mm 3 mps 740 mmHg 79%
    02:00 -2°C° 0 mm 3 mps 740 mmHg 79%
    03:00 -4°C° 0 mm 3 mps 740 mmHg 79%
    04:00 -4°C° 0 mm 3 mps 740 mmHg 79%
    05:00 -4°C° 0 mm 3 mps 739 mmHg 79%
    06:00 -3°C° 0 mm 4 mps 740 mmHg 74%
    07:00 -2°C° 0 mm 4 mps 740 mmHg 69%
    08:00 -1°C° 0 mm 5 mps 740 mmHg 65%
    09:00 0°C° 0 mm 5 mps 740 mmHg 60%
    10:00 +1°C° 0 mm 5 mps 740 mmHg 55%
    11:00 +2°C° 0 mm 5 mps 740 mmHg 50%
    12:00 +2°C° 0 mm 5 mps 740 mmHg 50%
    13:00 +2°C° 0 mm 5 mps 740 mmHg 50%
    14:00 +3°C° 0 mm 5 mps 740 mmHg 50%
    15:00 +3°C° 0.2 mm 4 mps 739 mmHg 62%
    16:00 +1°C° 0.2 mm 3 mps 739 mmHg 74%
    17:00 +1°C° 0.2 mm 2 mps 739 mmHg 86%
    18:00 -1°C° 0 mm 2 mps 739 mmHg 88%
    19:00 -2°C° 0 mm 2 mps 739 mmHg 90%
    20:00 -2°C° 0 mm 2 mps 740 mmHg 92%
    21:00 -3°C° 0 mm 2 mps 739 mmHg 89%
    22:00 -3°C° 0 mm 2 mps 739 mmHg 87%
    23:00 -3°C° 0 mm 2 mps 739 mmHg 84%

    27 Marzo, Miércoles

    Tiempo Temperatura Precipitaciones Viento Presión Humedad
    00:00 -4°C° 0 mm 3 mps 738 mmHg 80%
    01:00 -3°C° 0 mm 4 mps 738 mmHg 77%
    02:00 -4°C° 0 mm 5 mps 737 mmHg 73%
    03:00 -4°C° 0.1 mm 5 mps 737 mmHg 75%
    04:00 -4°C° 0.1 mm 5 mps 736 mmHg 77%
    05:00 -5°C° 0.1 mm 5 mps 736 mmHg 78%
    06:00 -4°C° 0.3 mm 5 mps 735 mmHg 78%
    07:00 -2°C° 0.3 mm 5 mps 735 mmHg 78%
    08:00 -3°C° 0.3 mm 6 mps 735 mmHg 78%
    09:00 -3°C° 0.2 mm 6 mps 735 mmHg 73%
    10:00 -1°C° 0.2 mm 5 mps 735 mmHg 69%
    11:00 -1°C° 0.2 mm 5 mps 735 mmHg 64%
    12:00 -1°C° 0.3 mm 5 mps 736 mmHg 63%
    13:00 -2°C° 0.3 mm 6 mps 736 mmHg 61%
    14:00 -2°C° 0.3 mm 6 mps 736 mmHg 60%
    15:00 -2°C° 0.2 mm 6 mps 737 mmHg 63%
    16:00 -2°C° 0.2 mm 5 mps 738 mmHg 65%
    17:00 -2°C° 0.2 mm 5 mps 738 mmHg 68%
    18:00 -4°C° 0 mm 5 mps 739 mmHg 72%
    19:00 -4°C° 0 mm 5 mps 740 mmHg 76%
    20:00 -5°C° 0 mm 5 mps 741 mmHg 81%
    21:00 -5°C° 0 mm 5 mps 741 mmHg 83%
    22:00 -5°C° 0 mm 5 mps 742 mmHg 85%
    23:00 -5°C° 0 mm 5 mps 743 mmHg 87%
    Mostrar más